Regional Weather Roundup
Issued by NWS Albany, NY

Current Version | Previous Version | Graphics & Text | Print | Product List | Glossary Off
Versions: 1 2 3 4 5 6 7 8 9 10 11 12 13 14 15 16 17 18 19 20 21 22 23 24 25 26 27 28 29 30 31 32 33 34 35 36 37 38 39 40 41 42 43 44 45 46 47 48 49 50

000
ASUS41 KALY 291010
RWRALY

NEW YORK STATE HOURLY WEATHER ROUNDUP
NATIONAL WEATHER SERVICE ALBANY NY
600 AM EDT SUN MAR 29 2015

NOTE: "FAIR" INDICATES FEW OR NO CLOUDS BELOW 12,000 FEET WITH NO
SIGNIFICANT WEATHER AND/OR NO OBSTRUCTIONS TO VISIBILITY.

NYZ032-033-038>043-046>054-057>066-NYZ062>081-291100-
EAST


CITY           SKY/WX    TMP DP  RH WIND       PRES   REMARKS
ALBANY         CLEAR     13   5  70 CALM      30.21R
GLENS FALLS    FAIR      15   7  70 VRB3      30.19R
POUGHKEEPSIE   CLEAR     20   9  62 CALM      30.20R
NEWBURGH       CLEAR     19  10  68 W6        30.19R WCI  11
MONTGOMERY     CLEAR     20   4  50 VRB3      30.18R
WHITE PLAINS   MOCLDY    23   5  46 NW12      30.15R WCI  12
ISLIP          CLOUDY    26  13  57 N14       30.14R WCI  14
NEW YORK CITY  MOCLDY    28   6  39 NW13      30.19R WCI  17
CENTRAL PARK   CLOUDY    26   5  40 VRB6      30.21R WCI  19
$$

NYZ005>009-017-018-044>046-055-056-291100-
CENTRAL


CITY           SKY/WX    TMP DP  RH WIND       PRES   REMARKS
FULTON         CLEAR     12   7  80 CALM      30.23R
SYRACUSE       CLEAR     18  12  77 SW7       30.24R WCI   9
ROME           CLEAR      7   3  84 SE3       30.25R
ELMIRA         CLEAR     13   8  81 VRB5      30.24R WCI   5
BINGHAMTON     CLEAR     15  10  80 NW6       30.15R WCI   6
MONTICELLO     CLEAR     12   9  85 W6        30.15R WCI   3
$$

NYZ026>034-041>043-291100-
NORTH


CITY           SKY/WX    TMP DP  RH WIND       PRES   REMARKS
WATERTOWN      CLEAR     15   8  73 S3        30.22R
FORT DRUM      NOT AVBL
MASSENA        CLEAR     13   5  70 SW6       30.21R WCI   4
SARANAC LAKE   CLEAR     -9 -14  78 CALM      30.08R
PLATTSBURGH    CLEAR     15   5  64 CALM      30.17R
$$

NYZ001>004-010>016-019>021-291100-
WEST


CITY           SKY/WX    TMP DP  RH WIND       PRES   REMARKS
NIAGARA FALLS  CLEAR     17  11  77 S7        30.27R WCI   8
BUFFALO        CLEAR     17  11  77 SW7       30.27R WCI   8
DUNKIRK        CLEAR     17  11  77 SW7       30.29R WCI   8
JAMESTOWN      CLEAR     10   7  85 SW6       30.21R WCI   1
WELLSVILLE     CLEAR     12   7  80 W7        30.17S WCI   1
ROCHESTER      CLEAR     19  11  70 W6        30.26R WCI  11
PENN YAN       CLEAR     20  11  68 S5        30.22R WCI  13
$$

             KEY
       WCI = WIND CHILL INDEX
       VSB = VISIBILITY
       HX  = HEAT INDEX
$$



USA.gov is the U.S. government's official web portal to all federal, state and local government web resources and services.